Location: Azul
(36.7830°S, 59.8500°W)
Time: 09:57:15
(UTC-03:00)

NUDT-PHONESAT - Visible Passes

Search period start: 22 October 2021 00:00
Search period end: 01 November 2021 00:00
Orbit: 474 x 492 km, 97.4° (Epoch: 22 October)

Date Brightness Start Highest point End Pass type
(mag) Time Alt. Az. Time Alt. Az. Time Alt. Az.
23 Oct ? 20:46:30 10° SSW 20:48:46 16° WSW 20:51:01 10° WNW visible
24 Oct ? 20:20:43 10° S 20:24:00 32° WSW 20:27:13 10° NW visible
25 Oct ? 19:55:28 10° S 19:59:07 73° WSW 20:02:41 10° NNW visible
27 Oct ? 20:39:38 10° SSW 20:42:16 19° WSW 20:44:51 10° WNW visible
28 Oct ? 20:14:00 10° S 20:17:25 39° WSW 20:20:46 10° NW visible
30 Oct ? 20:59:08 10° SW 21:00:22 11° WSW 21:01:35 10° W visible
31 Oct ? 20:32:38 10° SSW 20:35:33 23° WSW 20:38:24 10° NW visible
